Weather History for Entrance, BC

Change the Weather History Date:

Saturday, October 13, 2012

  Actual Average Record
Temperature  
Mean Temperature 54 °F -  
Max Temperature 56 °F - - ()
Min Temperature 51 °F - - ()
Degree Days  
Heating Degree Days 12    
Growing Degree Days 4 (Base 50)    
Moisture  
Dew Point 52 °F    
Average Humidity 95    
Maximum Humidity 96    
Minimum Humidity 93    
Precipitation  
Precipitation 0.35 in - - ()
Sea Level Pressure  
Sea Level Pressure 29.97 in    
Wind  
Wind Speed 13 mph ()    
Max Wind Speed 25 mph    
Max Gust Speed -    
T = Trace of Precipitation, MM = Missing Value Source: Averaged Metar Reports

Daily Weather History Graph

Daily Weather History Graph

Search for Another Location

Airport:

Trip Planner

Search our weather history database for the weather conditions in past years. The results will help you decide how hot, cold, wet, or windy it might be!

Date:

Astronomy

Oct. 13, 2012 Rise Set
Actual Time 7:33 AM PDT 6:27 PM PDT
Civil Twilight 7:01 AM PDT 6:59 PM PDT
Nautical Twilight 6:25 AM PDT 7:36 PM PDT
Astronomical Twilight 5:48 AM PDT 8:13 PM PDT
Moon 5:22 AM PDT (10/13) 5:19 PM PDT (10/13)
Length of Visible Light 11h 57m
Length of Day
10h 53m
Waning Crescent, 4% of the Moon is Illuminated
Oct 13
Waning Crescent
Oct 15
New
Oct 21
First Quarter
Oct 29
Full
Nov 6
Last Quarter

Hourly Weather History & Observations

Time (PDT) Temp. Dew Point Humidity Pressure Visibility Wind Dir Wind Speed Gust Speed Precip Events Conditions
12:00 AM 52.3 °F 51.1 °F 95% 29.88 in - SE 12.7 mph - N/A   Unknown
2:00 AM 52.3 °F 51.1 °F 95% 29.91 in - ESE 16.1 mph - N/A   Unknown
3:00 AM 52.2 °F 50.9 °F 95% 29.92 in - ESE 15.0 mph - 0.01 in   Unknown
4:00 AM 52.0 °F 50.7 °F 95% 29.93 in - ESE 13.8 mph - N/A   Unknown
5:00 AM 53.1 °F 51.8 °F 95% 29.94 in - East 9.2 mph - N/A   Unknown
6:00 AM 52.7 °F 51.1 °F 94% 29.94 in - ESE 13.8 mph - N/A   Unknown
7:00 AM 54.0 °F 52.0 °F 93% 29.96 in - SE 11.5 mph - 0.01 in   Unknown
8:00 AM 52.5 °F 51.1 °F 95% 29.97 in - East 12.7 mph - N/A   Unknown
9:00 AM 52.7 °F 51.3 °F 95% 29.98 in - SE 13.8 mph - 0.01 in   Unknown
11:00 AM 53 °F 52 °F 96% 29.99 in - SE 21.9 mph - -  
11:00 AM 53.2 °F 52.2 °F 96% 29.99 in - SE 21.9 mph - 0.02 in   Unknown
12:00 PM 52.2 °F 51.1 °F 96% 30.00 in - ESE 17.3 mph - 0.01 in   Unknown
1:00 PM 53.4 °F 52.2 °F 95% 29.98 in - SE 25.3 mph - N/A   Unknown
2:00 PM 52.7 °F 51.6 °F 96% 29.99 in - ESE 18.4 mph - N/A   Unknown
3:00 PM 53.4 °F 52.3 °F 96% 30.00 in - ESE 18.4 mph - N/A   Unknown
5:00 PM 54.1 °F 52.7 °F 95% 29.99 in - East 13.8 mph - N/A   Unknown
6:00 PM 54.0 °F 52.2 °F 94% 29.99 in - SE 9.2 mph - N/A   Unknown
7:00 PM 56.3 °F 54.7 °F 94% 29.99 in - ESE 9.2 mph - N/A   Unknown
8:00 PM 53.2 °F 52.0 °F 95% 29.99 in - ESE 15.0 mph - N/A   Unknown
9:00 PM 52.3 °F 51.1 °F 95% 30.00 in - SE 11.5 mph - 0.08 in   Unknown
10:00 PM 54.0 °F 52.5 °F 95% 29.94 in - SSE 21.9 mph - 0.16 in   Unknown
11:00 PM 53 °F 52 °F 94% 29.96 in - SE 19.6 mph - -  
11:00 PM 52.9 °F 51.8 °F 96% 29.96 in - SE 19.6 mph - 0.10 in   Unknown